Theta_e
337 340 339 337 338 339 343 344 344 344 343 343 344 344 343 342 342 342 343 343 341 341 341 341 343 342 341 341 341 341 341 342 341 342 342 340 340 338 334 333 329 323 318 315 315 318 325 329 325 322 320 319 320 326 333 336 335 333 333 334 333 330 330 329 329 329 327 327 323 320 323 326 329 333 331 329 329 327 328 329 328 328 328 328 328
340 342 341 339 339 342 345 346 345 345 344 343 344 344 343 342 342 342 343 342 342 341 340 340 342 342 342 341 340 340 340 340 340 341 341 341 340 337 334 334 333 326 315 313 318 322 330 334 328 322 318 318 322 330 335 336 336 333 332 333 332 331 331 330 330 330 329 328 322 321 328 331 332 333 330 329 330 329 329 329 328 328 328 329 329
345 343 342 340 340 343 346 346 345 345 344 343 344 344 343 343 342 342 342 342 342 342 340 340 341 341 341 341 340 340 339 339 340 340 341 341 339 336 335 334 335 330 316 313 321 326 332 335 329 322 319 321 328 333 335 337 336 334 332 332 332 331 331 330 331 331 330 328 323 323 330 333 333 333 329 329 331 329 330 329 329 329 329 329 328
345 345 344 341 342 344 346 347 346 345 344 344 344 344 343 343 342 342 342 342 342 342 340 339 340 341 341 341 340 340 339 339 340 341 341 340 337 335 336 335 335 333 321 315 322 328 332 333 329 325 325 330 333 334 335 336 336 334 333 332 331 331 330 330 332 332 330 328 324 323 328 332 333 332 330 330 330 330 330 330 330 330 329 328 326
345 345 345 342 343 346 347 346 346 345 344 344 344 344 344 343 343 342 342 342 342 342 340 339 339 340 341 341 341 340 339 340 341 342 341 338 337 336 336 335 335 335 326 316 321 328 331 332 331 329 331 335 335 334 334 335 335 334 333 332 331 331 330 331 333 332 330 328 325 322 325 331 332 331 330 329 329 329 330 330 329 329 328 327 327
342 344 344 343 344 346 347 347 346 345 344 344 344 344 344 344 343 343 343 342 341 341 341 339 339 340 340 340 340 340 340 340 340 341 340 339 337 336 336 335 335 335 330 320 318 323 328 332 332 331 334 336 333 331 334 335 336 334 332 332 332 331 330 331 332 331 330 328 326 323 323 327 329 327 327 328 328 328 329 328 327 327 327 328 328
343 343 344 343 344 346 347 347 346 345 344 344 344 345 344 344 344 343 343 343 342 342 342 340 339 339 340 340 339 340 340 339 340 340 340 339 337 336 336 335 334 335 335 330 322 319 324 329 329 328 333 334 331 331 334 336 335 333 332 332 332 331 329 330 330 330 328 327 326 324 321 322 324 323 324 326 326 326 327 328 327 327 328 329 329
345 344 345 344 343 344 344 345 346 346 345 344 344 344 344 344 344 344 343 343 343 343 342 340 339 339 340 340 339 339 339 339 339 340 340 339 337 336 336 335 335 334 335 335 326 317 322 328 328 328 332 333 332 332 334 335 335 333 332 332 333 331 329 329 329 327 325 324 325 325 322 321 322 322 322 324 325 324 325 325 326 328 328 327 328
344 344 345 344 343 341 341 343 345 346 345 344 344 345 345 345 345 344 344 343 343 343 342 341 340 339 339 340 339 339 339 338 339 340 340 339 338 337 336 335 336 335 335 337 328 316 322 332 334 333 334 333 333 333 334 335 335 333 332 333 333 332 330 330 329 327 325 324 324 326 326 324 322 323 324 324 324 323 323 323 325 326 325 325 327
344 343 344 344 342 341 341 343 345 346 345 345 345 345 345 345 345 345 344 344 343 342 341 340 340 339 339 339 339 339 340 339 339 340 339 339 338 337 336 335 336 336 335 337 331 318 320 333 337 336 334 332 332 333 333 333 334 334 334 334 333 332 331 330 330 329 326 323 322 324 326 325 324 324 325 325 324 324 324 322 322 324 323 324 327
344 344 344 343 342 341 342 345 346 346 346 345 346 345 345 346 345 345 345 344 343 341 341 340 340 340 339 339 339 339 339 339 339 339 338 338 339 338 337 335 335 336 333 333 332 325 327 335 338 336 334 332 332 333 331 332 334 334 334 333 333 332 331 330 330 329 325 320 320 323 324 323 323 323 324 325 324 324 322 320 321 323 323 325 326
344 344 345 343 344 344 344 346 346 345 346 346 346 346 346 346 346 345 345 344 342 341 341 340 339 340 340 339 339 339 339 339 338 338 338 337 338 337 337 336 335 335 334 331 329 328 332 337 338 335 332 330 331 331 330 331 332 332 332 332 332 332 330 330 330 327 321 316 319 323 322 320 318 319 320 320 319 319 318 318 320 322 323 324 325
344 344 345 344 344 344 344 345 345 345 346 345 345 346 345 346 346 345 344 343 342 341 340 339 338 339 340 339 339 339 339 339 338 338 338 337 337 337 337 336 335 335 335 332 328 328 332 336 337 334 331 329 329 329 329 331 331 330 331 332 332 331 328 329 328 323 318 317 321 323 320 317 316 316 316 316 316 316 316 317 320 322 323 323 322
344 343 344 345 344 344 344 345 345 345 345 345 345 345 345 346 346 345 344 343 342 341 340 340 338 338 340 339 339 340 340 339 339 339 339 339 338 337 336 336 335 334 334 333 329 328 331 335 335 333 331 330 328 327 329 330 330 331 332 333 332 329 327 326 324 319 316 318 321 322 318 316 315 315 315 315 315 315 315 318 321 322 322 322 321
344 344 344 344 344 344 345 345 345 345 345 345 345 345 346 346 345 345 344 343 342 341 340 340 339 338 339 339 339 339 339 339 339 339 340 339 338 337 336 336 335 335 334 332 329 327 330 334 334 333 332 330 329 328 329 331 331 330 331 332 330 328 327 325 320 317 317 318 320 320 318 316 315 315 315 315 314 315 315 317 320 322 322 321 320
343 344 344 344 343 343 345 345 345 345 345 345 345 346 346 345 345 345 344 344 342 341 339 340 340 338 339 340 340 339 339 339 340 340 340 340 339 338 336 336 336 336 334 333 331 330 330 332 332 332 333 330 330 331 331 331 329 328 330 331 329 328 327 324 319 317 317 318 319 318 317 315 314 314 314 313 313 313 313 314 319 322 322 320 319
343 343 343 344 343 344 346 346 346 346 346 346 345 345 345 344 344 344 343 344 342 340 340 340 340 339 339 340 340 340 339 339 340 340 340 339 339 338 337 336 336 336 335 332 331 332 332 332 332 332 331 329 331 332 332 331 329 329 330 331 330 329 327 324 319 317 317 317 318 317 316 315 314 314 313 312 311 310 310 312 316 320 321 320 319
343 343 343 343 344 344 346 346 346 346 345 344 343 342 341 338 339 341 341 341 340 339 340 340 340 339 339 340 340 340 339 339 340 339 339 339 339 338 337 337 337 336 335 332 330 332 332 332 332 331 329 329 331 332 331 331 330 331 332 331 331 330 328 324 319 318 317 315 316 315 315 314 313 313 312 310 309 308 309 310 313 318 320 321 320
342 343 343 344 344 345 346 346 346 345 343 341 340 338 336 335 337 338 337 336 338 340 341 341 340 339 339 339 340 340 339 339 339 339 339 338 338 338 337 337 337 336 334 332 330 330 332 332 332 331 330 331 332 332 332 332 332 332 332 332 332 330 328 324 319 318 317 314 315 315 314 313 312 312 311 309 308 307 308 310 311 313 317 319 320
342 344 343 344 344 344 345 345 345 344 343 341 339 337 336 336 337 337 336 338 340 341 341 341 340 339 339 339 339 340 339 339 339 339 338 338 338 338 337 337 337 336 334 333 330 329 331 333 332 331 333 334 333 333 333 333 332 332 333 332 331 329 327 322 319 319 318 315 315 314 313 312 311 311 310 308 308 307 307 308 307 308 311 314 316
342 343 344 343 344 344 345 344 344 343 342 340 338 338 337 337 336 335 337 339 340 340 341 341 341 340 339 339 339 339 338 338 339 338 338 338 337 337 337 337 336 335 334 332 331 330 332 334 333 333 335 335 335 334 333 334 334 333 332 331 329 327 325 321 318 319 318 315 314 313 312 311 310 311 310 308 309 308 307 308 305 304 306 307 311
342 343 343 344 344 344 344 344 344 343 342 340 340 339 339 338 336 335 337 339 340 340 340 341 341 340 339 339 339 338 338 338 338 338 338 338 337 337 337 337 336 335 333 332 332 332 334 335 335 335 336 335 335 335 335 335 334 332 331 330 328 325 322 319 318 319 317 315 314 312 311 311 309 310 310 310 311 309 307 307 304 303 304 305 309
341 343 343 344 344 343 344 343 344 344 342 342 340 339 339 338 335 334 336 338 339 339 340 340 341 340 340 340 340 339 339 338 338 338 338 338 337 337 337 336 335 334 333 332 333 334 334 334 334 334 335 334 334 335 334 334 332 330 330 329 326 322 319 318 318 317 316 314 313 312 311 310 310 310 311 312 313 310 306 305 304 303 304 305 310
340 343 343 344 344 344 344 344 344 344 343 342 340 338 338 337 335 334 335 337 339 339 340 340 340 340 340 341 340 340 339 338 338 338 338 337 337 336 336 335 334 334 333 333 334 336 335 334 334 334 333 332 333 333 331 331 330 330 330 328 323 320 319 319 318 316 315 313 312 312 311 310 310 310 310 311 311 309 306 305 303 302 304 306 309
338 342 344 344 344 344 344 344 344 344 343 341 340 338 337 337 335 333 335 337 339 339 340 340 340 340 340 340 340 339 339 338 337 338 338 337 336 336 336 335 334 333 333 333 335 335 334 334 334 334 332 332 332 331 329 329 330 330 329 326 322 320 320 319 318 316 314 313 312 312 311 310 310 309 309 308 308 306 304 304 303 301 304 305 307
337 341 343 344 344 344 344 344 344 344 342 340 339 338 337 338 336 334 335 337 338 340 341 341 340 340 340 340 340 339 338 338 337 338 338 337 336 336 335 334 333 333 334 334 334 335 335 334 333 333 333 333 332 331 330 330 330 329 327 325 322 321 320 319 318 316 315 314 313 312 311 311 310 309 307 306 305 303 302 303 303 303 304 305 305
337 340 342 343 344 344 344 344 344 342 340 339 338 337 338 339 337 336 337 337 339 340 340 340 340 340 340 340 338 338 338 338 337 338 338 337 337 336 335 334 334 334 334 333 333 334 334 333 332 332 332 331 331 331 331 330 330 328 326 325 322 321 319 319 317 316 316 315 314 313 312 311 310 308 305 304 303 303 301 301 303 304 305 307 307
339 340 341 342 343 343 344 344 343 342 341 341 340 340 341 339 337 337 338 339 340 340 339 339 339 340 340 338 337 338 339 338 337 338 338 337 337 336 335 335 334 333 332 332 332 333 333 331 331 333 332 330 330 332 331 330 328 325 325 324 322 320 319 318 318 317 317 316 315 314 312 311 310 308 304 302 302 302 301 300 302 304 305 308 309
341 341 342 342 342 343 343 343 344 343 343 343 343 343 342 340 338 338 340 340 340 339 339 339 339 340 340 338 338 339 339 337 337 337 338 337 336 336 335 335 334 332 331 332 332 333 332 331 332 333 332 330 331 332 331 329 327 324 324 323 321 320 319 318 318 317 317 317 316 314 312 311 310 306 302 300 300 301 301 300 301 303 304 306 307
343 342 343 342 342 342 342 343 344 344 344 344 344 344 342 340 339 339 340 340 339 338 338 339 338 338 339 339 338 339 339 337 336 336 336 336 336 336 335 335 333 332 332 332 332 332 332 332 332 332 331 330 330 330 329 327 325 324 323 322 321 320 320 318 318 318 317 317 315 313 312 311 307 302 300 299 299 300 301 300 300 301 302 304 305
344 344 344 343 343 343 343 344 344 344 345 345 344 344 342 340 340 340 340 340 338 337 338 338 337 336 338 339 339 339 338 336 336 335 334 335 335 335 335 334 333 333 332 332 332 331 331 331 332 332 331 331 331 329 328 326 324 322 323 322 321 320 320 318 318 318 317 316 315 312 311 308 303 299 299 300 299 300 300 300 300 300 300 302 303
343 343 343 344 344 344 344 344 344 344 344 344 343 342 341 341 341 341 340 339 337 337 337 336 336 336 339 341 340 339 337 335 335 334 334 334 335 335 334 333 332 333 332 332 331 331 331 331 332 332 331 332 331 329 328 326 323 322 323 322 321 320 319 318 317 317 316 315 314 312 307 303 300 299 300 300 300 300 300 300 299 299 299 300 300
342 342 342 343 343 344 344 344 344 344 343 343 343 342 342 342 341 340 339 337 337 337 337 336 335 336 339 340 339 338 336 335 335 334 334 334 335 333 332 332 332 332 332 332 332 331 330 330 331 332 331 330 330 329 327 325 323 323 323 322 321 320 319 318 317 316 316 314 314 311 305 300 299 299 299 300 300 300 300 299 299 299 298 299 298
341 341 342 342 341 342 345 344 344 344 343 343 343 342 342 341 340 339 338 338 337 337 337 336 335 337 339 339 337 336 334 334 335 334 334 335 333 331 331 332 332 332 332 332 331 331 330 330 331 331 330 329 329 328 326 324 323 322 322 321 320 319 318 317 317 316 315 314 314 311 305 299 299 299 299 299 299 299 299 299 299 298 298 298 298
341 341 342 341 339 340 343 344 343 343 343 343 342 342 341 340 339 338 338 338 338 338 337 336 337 338 338 337 336 334 333 333 333 334 334 334 331 330 331 332 331 331 332 332 331 330 330 330 330 330 330 329 328 327 325 324 323 322 321 320 319 319 318 317 316 316 315 314 314 312 307 301 299 299 299 299 298 298 298 298 298 298 298 298 298
337 339 340 340 339 339 340 341 342 342 342 341 341 341 339 338 338 338 338 338 337 337 337 337 337 338 336 336 335 334 332 332 333 333 333 331 330 329 330 331 331 332 332 331 330 329 329 330 330 329 329 329 327 326 325 323 322 321 320 320 319 319 318 317 316 315 315 315 314 313 311 306 300 299 299 300 299 299 298 298 298 298 297 297 298
333 335 336 337 337 338 338 339 340 340 340 340 340 339 338 338 338 338 338 338 337 336 337 338 338 337 336 335 334 333 333 332 332 332 331 329 329 329 330 331 331 331 331 329 328 328 329 330 330 329 329 328 327 326 325 323 321 320 320 320 319 319 318 316 316 315 315 315 314 314 313 309 303 301 301 302 301 301 300 299 299 299 298 298 298
335 336 336 337 337 337 337 338 338 338 338 338 338 338 338 339 339 338 338 338 337 337 337 337 337 336 335 334 332 331 332 332 331 330 329 329 330 331 331 332 331 330 328 327 327 328 329 329 329 329 328 327 327 326 324 323 321 320 320 319 319 318 317 316 315 315 315 314 314 313 314 311 306 304 304 303 302 302 302 302 301 300 298 298 298
337 337 337 337 337 337 337 337 337 338 338 338 338 338 339 339 339 338 338 339 338 338 338 337 336 335 334 333 333 332 332 332 331 331 331 330 331 332 332 332 331 329 326 325 326 327 328 328 328 328 327 327 326 326 324 323 321 320 320 319 319 318 317 315 315 315 314 314 314 313 313 311 309 307 307 305 303 303 304 304 303 301 299 298 299
337 336 336 336 337 338 337 337 338 338 339 339 339 339 339 339 338 338 338 338 338 338 337 336 335 335 333 333 333 333 332 332 331 331 331 330 330 330 331 331 331 328 326 325 326 326 327 328 327 327 327 327 326 326 324 323 321 321 320 319 319 318 316 315 315 315 314 314 313 313 313 311 310 310 309 305 302 301 303 304 304 302 300 299 301
336 336 335 334 335 337 338 338 338 338 338 339 340 339 338 337 337 338 338 337 337 336 335 335 335 334 333 333 333 332 332 332 331 330 330 329 328 327 328 329 329 327 326 326 326 326 327 327 327 327 327 327 326 325 324 323 321 320 319 319 318 317 316 315 315 315 315 314 313 313 312 311 311 311 308 301 299 300 303 303 304 304 302 301 302
333 332 332 332 333 336 337 336 336 336 337 339 339 338 335 334 334 336 337 336 336 335 335 335 335 334 333 333 333 332 331 331 330 330 330 329 328 327 327 327 327 327 326 326 327 327 327 327 328 327 326 325 324 323 323 322 321 319 319 318 318 317 316 315 315 315 314 314 313 312 312 311 311 311 306 299 297 301 304 303 303 304 303 302 303
330 330 331 332 333 334 334 334 334 335 336 337 337 337 335 334 334 334 335 335 335 335 335 335 334 333 332 332 332 331 330 330 330 330 330 329 328 327 327 327 327 327 327 327 327 328 328 327 327 326 324 323 323 322 322 321 320 319 318 318 318 317 316 315 315 314 314 313 312 312 312 311 311 309 306 301 298 300 301 300 301 303 303 303 305
330 330 331 332 332 332 332 332 333 334 335 336 336 335 334 333 334 334 335 334 334 335 335 334 333 332 331 330 331 331 331 330 330 330 330 329 328 328 327 326 325 326 327 328 328 328 328 327 326 325 323 322 322 321 321 320 320 319 317 317 317 316 316 315 314 314 314 312 311 311 311 310 307 306 306 302 298 296 296 297 299 302 303 303 304
330 330 330 331 332 331 332 332 332 333 334 333 333 333 332 333 334 333 333 333 333 334 334 333 333 332 331 330 330 331 331 331 331 331 331 330 329 329 328 327 326 326 326 327 328 328 328 327 326 325 324 323 322 321 320 320 320 319 318 317 316 315 315 314 313 313 313 311 311 311 309 306 305 303 301 299 297 295 295 296 300 302 303 304 304
331 331 331 331 331 332 333 333 333 333 332 332 332 333 333 334 333 330 329 332 333 332 333 333 333 333 332 331 330 330 330 330 330 331 331 331 330 329 329 329 328 327 327 327 328 328 327 326 325 325 324 324 323 321 320 319 319 318 317 317 316 315 314 313 312 313 312 311 312 310 307 306 307 304 300 297 296 296 297 300 302 304 304 304 304
331 331 332 332 332 332 332 332 332 332 331 331 332 332 333 333 333 331 330 331 331 331 332 333 334 333 333 333 332 332 332 332 332 332 331 331 331 330 330 329 329 328 328 327 328 327 327 326 326 324 323 322 322 321 319 318 317 317 316 316 316 314 313 313 313 312 311 311 311 308 307 308 307 303 298 296 296 298 300 302 303 304 304 304 304
330 331 332 332 332 331 331 331 331 331 331 332 332 332 332 333 333 332 332 331 331 331 332 333 333 333 333 332 332 332 332 331 332 332 331 331 330 330 330 329 329 329 329 328 327 327 326 326 325 325 323 321 320 319 317 317 317 316 316 316 315 314 313 313 312 311 310 310 309 307 308 307 303 298 296 296 298 300 302 303 302 303 303 303 304
327 329 330 331 330 330 330 330 330 330 331 332 332 332 332 332 332 332 331 331 331 331 331 332 332 332 331 330 330 330 330 330 330 330 330 330 330 329 329 329 329 328 328 328 328 327 327 326 325 325 324 321 319 318 317 317 316 315 315 315 314 314 313 312 311 311 310 309 307 308 308 305 299 296 295 296 299 301 302 303 303 303 303 303 303
325 326 327 327 328 328 328 328 328 329 330 331 331 331 331 332 332 332 332 332 332 331 331 331 330 330 330 329 329 329 329 328 328 327 327 327 328 328 328 328 328 327 327 327 327 326 326 326 325 323 321 320 318 317 317 316 315 314 314 314 313 312 312 311 310 310 309 308 307 307 304 299 296 296 297 298 301 302 302 303 304 304 304 304 304
323 323 324 324 325 326 326 326 326 327 328 329 329 329 329 330 331 331 332 332 332 332 332 332 330 330 330 329 328 328 327 327 327 327 328 327 327 327 327 327 327 326 326 326 325 325 325 324 323 322 319 317 316 315 314 313 313 313 313 313 312 311 310 310 309 308 307 307 305 302 298 295 296 298 300 301 302 302 303 303 303 302 303 303 303
Wind_Speed
37 37 37 35 34 34 35 35 35 35 35 33 32 33 33 34 32 31 31 28 25 28 31 28 26 28 29 26 25 24 22 23 24 24 24 23 20 17 16 15 14 20 24 22 19 20 20 18 18 19 18 17 15 14 14 14 14 12 11 12 11 10 9 9 8 9 10 9 9 8 7 6 4 5 3 2 3 3 1 2 4 4 6 7 8
36 38 38 36 35 36 37 38 38 38 37 35 34 35 35 34 32 31 31 30 27 29 32 30 26 27 30 28 26 25 23 25 26 26 26 24 21 18 17 15 13 16 21 22 22 22 21 19 18 18 18 16 15 15 16 17 16 12 11 12 10 9 10 9 9 9 9 10 8 5 5 4 7 8 4 4 4 4 2 1 2 3 5 5 7
36 39 39 38 37 37 38 40 40 40 39 37 35 36 37 35 33 31 31 31 30 30 31 31 27 24 28 28 26 25 24 25 27 26 26 24 21 19 17 16 14 14 18 23 24 24 22 20 18 18 17 16 16 17 18 17 16 13 12 12 10 9 10 10 10 10 10 10 8 4 5 6 8 8 5 5 5 4 4 2 1 3 4 4 7
37 39 40 39 38 39 40 41 41 41 40 37 36 38 39 37 34 32 32 31 30 31 30 31 30 26 25 27 26 25 24 24 25 26 26 24 21 19 17 17 16 14 18 23 25 25 23 21 20 18 17 17 17 19 19 18 17 14 12 12 10 8 10 11 11 11 11 10 7 4 7 7 8 9 7 5 3 4 5 4 3 4 3 4 7
41 40 41 41 40 41 41 42 42 43 42 39 38 39 39 38 35 33 34 31 28 32 30 29 32 29 27 27 26 26 24 25 27 27 27 25 22 20 18 18 16 15 18 22 26 27 25 23 22 19 19 19 19 19 19 18 17 15 13 13 10 8 10 11 11 12 12 11 8 5 6 7 8 9 8 6 5 5 6 5 4 3 1 5 6
45 43 43 43 43 42 42 43 44 44 43 41 39 39 38 38 36 34 35 32 27 31 31 29 33 34 32 32 31 30 29 29 29 29 28 25 22 21 19 18 17 16 18 20 24 27 26 26 24 21 20 20 20 20 20 18 17 16 14 13 10 9 10 11 12 12 12 11 9 6 6 6 7 9 9 9 8 7 8 7 3 2 3 5 3
45 45 46 46 45 44 44 45 46 45 44 42 39 38 38 37 36 35 35 33 29 32 32 29 33 36 36 35 35 34 32 31 30 28 27 25 22 22 22 21 20 19 18 18 21 24 26 27 25 23 22 21 20 20 19 18 18 16 15 14 12 10 9 11 13 13 13 12 9 7 7 7 8 8 8 10 9 8 8 6 3 4 5 2 2
45 46 47 47 47 46 46 46 47 46 45 43 41 39 38 37 36 36 35 33 31 34 33 29 32 37 39 37 36 35 33 31 28 27 28 28 25 25 26 25 24 22 21 20 21 24 25 25 25 24 24 23 20 19 19 18 18 17 16 15 13 10 9 10 12 14 14 13 10 7 7 7 8 8 7 8 9 9 7 6 6 7 5 3 4
47 48 48 48 48 47 46 47 47 47 46 45 42 40 39 37 36 36 36 34 33 33 32 30 31 36 39 39 37 35 33 30 27 27 29 31 30 29 29 28 26 24 24 21 22 25 26 24 24 25 25 23 21 19 18 18 19 18 17 16 14 11 10 10 12 14 15 13 12 10 9 8 8 9 7 6 7 7 5 5 8 8 5 3 4
47 50 51 49 48 46 45 46 47 47 46 44 42 40 38 37 36 37 36 34 32 31 29 29 31 35 38 39 38 35 32 29 27 28 29 30 32 34 33 30 27 26 25 21 21 25 26 25 25 25 25 23 21 19 19 19 20 19 18 17 15 13 11 12 14 15 15 14 14 14 12 11 11 10 9 8 7 7 6 6 9 8 4 4 6
47 49 50 50 48 46 46 46 46 46 45 43 42 40 38 37 37 37 36 34 32 31 30 29 31 35 38 39 38 35 31 29 28 29 30 30 32 35 35 31 28 27 25 23 23 25 26 26 25 25 25 23 21 20 19 19 20 21 20 18 16 14 13 14 16 17 16 15 16 16 15 14 13 12 12 11 9 9 7 6 8 7 4 7 11
47 47 48 49 48 46 44 44 45 45 45 44 43 41 38 38 38 38 37 35 33 32 32 30 30 34 38 39 38 35 31 29 29 31 32 32 32 34 34 32 29 28 27 25 25 26 27 27 26 25 25 23 21 20 19 20 21 23 22 19 17 15 14 16 17 17 16 15 16 17 16 14 12 11 11 9 8 7 4 6 9 9 8 12 14
47 47 48 48 48 46 44 43 44 45 45 45 44 41 39 39 39 38 37 36 34 33 34 33 31 32 36 39 38 34 31 30 30 32 33 32 31 31 31 31 29 29 28 27 27 28 28 28 27 26 25 23 21 20 20 21 23 24 22 19 17 15 15 17 16 15 15 15 16 17 15 11 9 8 7 6 5 4 2 8 12 11 12 15 15
47 48 49 50 50 48 47 46 45 45 46 46 44 42 41 41 41 39 38 36 34 35 36 35 31 31 34 37 37 35 33 31 31 32 33 32 30 30 29 28 27 28 28 28 28 29 30 29 28 26 24 23 21 20 21 22 23 23 20 17 17 16 16 16 15 14 14 15 18 17 13 10 8 7 6 5 5 4 3 10 14 14 15 16 13
47 48 50 51 51 49 48 48 47 47 46 45 44 43 42 43 42 41 39 37 36 36 37 35 32 30 34 37 37 36 34 33 31 32 32 31 30 29 28 25 25 25 26 28 29 30 30 31 30 27 25 23 21 21 23 23 23 23 20 17 17 16 16 16 13 13 14 16 19 17 12 10 9 8 7 6 6 6 5 9 14 16 18 16 12
45 47 49 51 51 50 49 49 49 48 47 45 44 43 43 43 42 41 40 38 37 37 37 36 32 31 34 36 37 36 34 33 32 31 32 31 30 29 28 25 24 23 24 27 29 30 31 31 31 29 26 24 23 24 25 25 24 23 21 18 17 16 15 15 13 13 15 18 19 16 12 10 10 9 8 7 7 8 8 10 14 17 18 17 13
45 46 48 49 50 49 49 50 50 49 48 46 43 42 41 41 42 42 41 39 39 38 38 36 33 32 34 35 36 36 34 33 32 32 32 31 30 29 27 24 23 23 23 25 27 30 31 31 31 29 28 26 25 26 26 25 24 23 21 18 17 15 15 14 13 13 16 19 19 16 12 10 10 9 8 7 7 8 9 12 15 17 17 17 16
46 46 47 49 49 49 49 49 51 50 48 45 43 40 39 39 40 41 41 40 39 39 38 37 35 33 34 35 35 35 34 33 32 31 31 30 29 28 26 24 24 23 22 24 27 29 30 32 31 30 29 28 27 28 27 25 23 22 20 19 17 15 15 15 14 14 17 18 17 14 12 11 10 9 8 8 8 8 8 11 15 18 18 16 16
44 45 46 46 47 48 49 49 50 49 47 44 42 40 38 38 38 38 38 37 38 39 38 37 35 33 33 33 33 33 33 33 32 31 30 30 29 27 26 25 24 23 23 25 28 29 31 32 32 31 31 30 29 29 28 25 23 21 20 18 17 16 16 16 15 15 17 16 15 14 13 12 10 9 8 8 7 6 6 8 11 15 17 16 14
45 46 45 45 46 47 49 50 50 49 47 44 42 40 38 37 36 36 36 37 38 38 39 38 36 34 32 32 32 32 32 32 32 31 30 30 29 27 26 26 24 23 24 26 29 31 32 32 32 32 32 32 30 29 28 25 23 20 18 16 17 17 17 16 16 16 16 15 15 15 13 11 9 9 8 7 5 5 5 6 7 11 14 15 14
46 47 46 46 47 47 49 50 49 49 47 44 42 39 37 35 34 33 35 37 38 38 38 38 37 35 32 31 30 30 30 31 31 30 30 29 28 27 27 26 25 25 26 27 30 32 33 33 33 33 33 33 32 30 28 26 22 18 15 15 16 16 17 17 17 16 15 14 15 14 12 10 8 7 6 4 4 4 5 6 5 8 10 12 14
46 47 48 48 48 47 47 48 47 47 46 44 41 38 36 34 31 31 34 37 38 38 38 38 37 35 33 31 30 29 30 29 29 30 30 29 28 27 27 27 26 26 27 28 31 33 35 36 35 35 34 32 31 31 30 26 20 16 14 14 15 17 18 18 18 16 15 15 14 13 12 10 8 6 5 4 4 6 6 5 4 6 7 9 13
47 48 48 48 48 48 47 47 46 46 46 44 40 38 36 33 29 29 32 35 36 36 36 37 36 35 33 31 31 30 30 29 28 30 30 28 27 27 27 27 26 26 27 29 32 36 38 37 36 35 32 31 32 32 28 22 16 13 13 14 16 18 18 17 16 16 15 15 14 12 11 9 7 6 6 7 7 8 7 6 4 5 6 9 14
46 47 47 46 47 47 47 47 46 46 45 43 41 38 35 32 30 30 32 34 36 36 36 36 35 33 31 31 31 31 30 29 29 29 29 28 27 27 27 27 26 26 26 28 34 39 39 37 37 35 32 32 33 31 24 17 13 12 12 13 14 16 16 15 15 15 15 15 13 12 10 8 7 7 8 9 10 11 9 6 4 4 6 10 13
44 44 44 44 45 46 47 47 46 46 45 43 41 39 36 33 31 31 32 34 35 36 36 35 33 31 30 30 30 30 29 28 28 29 29 27 27 27 27 26 26 25 26 29 35 38 37 35 36 35 32 31 30 25 19 15 13 12 11 11 13 14 15 15 14 15 16 15 13 11 9 7 6 7 9 10 12 13 10 8 6 6 7 9 11
44 44 44 44 45 47 48 48 47 46 45 43 42 39 36 34 32 32 33 33 34 35 35 34 32 30 30 30 30 29 27 27 28 28 28 27 26 26 26 26 25 24 26 30 33 35 33 33 35 34 32 31 28 21 17 14 13 11 10 10 13 14 16 16 15 16 16 14 12 10 8 7 6 7 7 8 10 12 11 9 7 6 7 8 9
46 43 44 44 45 47 47 47 47 46 45 43 42 40 38 35 34 34 33 33 34 34 33 32 30 30 31 31 30 28 27 27 28 28 27 27 26 25 24 24 24 24 26 28 30 32 31 29 29 30 29 29 26 20 16 15 13 11 10 11 13 15 17 18 17 16 16 13 12 10 8 8 8 8 8 7 8 9 9 9 7 6 6 6 7
41 41 43 43 44 46 46 46 46 45 45 44 41 41 39 36 35 34 34 34 33 32 30 29 29 29 31 30 29 28 27 27 28 26 26 27 25 24 23 23 23 23 25 26 28 30 29 27 27 27 26 26 23 19 18 17 14 12 12 12 14 16 18 18 17 16 15 13 12 11 9 9 10 10 9 9 8 8 8 8 8 7 7 6 6
35 37 41 44 45 44 44 44 44 44 43 42 41 41 39 37 35 34 34 33 30 29 28 28 28 29 29 28 28 28 28 28 27 26 25 25 23 22 22 22 23 23 23 24 25 27 27 27 28 28 26 24 21 20 20 18 16 14 14 13 13 15 16 17 16 16 16 15 14 12 11 12 12 11 10 10 9 9 8 8 9 9 8 7 7
35 37 39 42 44 45 44 43 42 42 41 40 41 41 38 36 36 34 32 30 28 27 27 28 28 28 27 27 27 28 29 27 26 25 26 24 21 20 21 22 23 23 21 21 22 24 25 25 26 27 26 23 21 19 17 17 17 17 15 13 12 13 14 16 17 17 17 16 14 13 13 13 12 11 11 10 9 9 9 8 8 9 8 8 8
30 35 39 40 41 41 42 41 41 40 40 40 40 38 36 36 35 34 31 28 27 26 27 29 28 25 27 29 28 29 29 26 25 26 26 23 21 20 20 22 23 22 21 22 21 22 23 25 26 26 25 23 21 17 14 16 18 18 15 13 12 12 14 17 17 17 17 16 14 13 13 12 11 10 11 10 10 10 9 8 8 8 7 8 8
20 24 30 36 39 40 39 39 39 38 38 39 37 36 36 36 34 32 29 26 26 26 27 28 25 25 29 30 28 29 28 26 25 26 25 23 21 21 21 22 22 21 22 22 21 20 21 23 25 25 24 24 21 17 15 17 18 17 15 13 12 13 15 16 17 16 15 14 13 12 11 10 10 11 11 11 10 10 9 8 8 7 6 6 6
21 21 21 24 31 37 38 36 36 37 37 36 35 35 36 35 32 29 26 25 25 24 25 24 22 25 29 28 26 27 26 25 27 27 24 22 21 21 22 22 21 20 20 21 20 19 19 21 25 26 25 23 20 17 17 18 18 17 15 13 13 14 15 16 16 15 14 13 12 10 9 10 11 11 11 11 10 10 9 9 8 7 7 6 6
18 22 23 22 22 29 35 35 34 35 34 34 34 34 33 31 28 26 24 24 23 23 23 22 21 25 27 26 25 25 24 26 28 27 25 23 21 21 22 22 20 20 20 20 20 20 19 20 24 27 25 22 19 18 18 18 17 17 15 14 14 14 15 15 14 13 12 11 9 8 8 10 10 10 11 10 10 10 10 9 8 7 7 6 5
15 18 23 24 21 23 29 32 31 30 30 29 30 29 28 26 25 23 23 23 22 21 21 21 22 25 26 24 23 22 23 26 28 27 25 23 21 22 23 22 20 19 19 20 21 21 20 21 23 25 26 23 20 18 17 17 17 16 15 15 15 15 14 14 14 13 11 9 7 6 7 9 10 10 10 10 10 10 9 9 8 7 6 6 5
13 15 18 21 22 23 25 26 26 26 25 25 26 25 24 23 22 22 22 22 20 20 21 23 25 24 22 21 22 21 21 23 25 25 24 23 23 24 23 21 20 20 20 20 20 19 20 20 22 24 26 24 21 19 18 18 18 18 17 17 17 16 15 15 15 13 10 9 7 6 6 7 9 10 10 10 10 10 9 8 8 8 7 6 6
10 14 17 18 20 22 23 23 22 23 24 24 24 23 22 21 22 23 22 21 21 21 22 24 24 21 19 20 21 20 20 21 23 24 23 24 24 24 23 21 20 20 21 20 19 19 18 19 21 24 26 26 24 21 19 19 19 20 19 19 19 18 16 16 14 13 12 10 8 7 6 5 7 9 9 8 8 9 9 8 8 8 8 7 7
9 13 19 22 22 21 19 19 20 22 23 23 23 22 21 22 23 24 23 22 22 24 24 24 21 19 17 17 17 17 19 20 22 23 23 23 23 23 22 20 20 20 20 20 19 19 19 20 22 25 27 26 25 22 20 20 20 20 20 20 20 20 19 16 14 14 13 12 9 8 6 5 6 8 8 8 7 8 8 7 7 8 7 7 7
8 11 17 23 23 19 16 17 20 23 24 24 23 23 23 25 25 25 26 26 24 24 24 22 18 16 15 15 14 15 17 18 20 21 21 21 21 21 21 21 20 20 19 19 19 19 21 21 23 26 27 26 24 22 21 20 20 20 20 21 22 22 21 18 16 16 16 13 11 9 6 5 6 6 6 6 6 6 6 6 6 7 7 7 7
7 7 9 14 16 15 15 18 21 23 24 24 24 24 27 29 29 28 30 30 27 24 21 18 16 15 14 14 14 14 15 16 18 19 19 19 19 19 20 21 21 20 19 19 20 20 21 22 23 25 26 25 24 22 21 21 21 21 22 23 23 23 22 20 19 18 17 14 12 10 7 6 5 5 6 8 8 8 7 5 4 6 7 7 6
6 4 3 6 10 12 13 16 18 21 23 24 24 25 24 25 28 31 30 28 25 23 20 18 17 16 14 13 14 14 14 15 16 17 17 16 15 14 17 19 20 20 19 18 19 20 21 23 24 24 25 26 24 23 22 22 22 23 23 24 24 23 23 21 20 19 16 14 12 10 8 7 6 8 9 8 9 10 8 6 5 5 6 6 6
8 7 6 6 8 9 11 13 16 20 24 25 24 23 20 18 21 24 25 24 23 21 20 18 18 16 14 14 14 13 11 12 15 16 15 14 13 12 14 16 17 17 18 18 19 21 23 25 26 26 27 27 25 24 24 24 24 25 26 25 24 23 23 22 20 19 16 13 11 9 8 8 8 9 8 6 8 10 8 7 7 5 6 7 7
11 11 11 10 10 11 12 14 15 18 20 21 22 22 18 16 19 21 23 24 23 21 20 19 18 16 14 13 13 11 9 11 14 14 12 11 10 10 13 17 18 18 18 19 21 23 25 27 28 28 28 27 27 27 26 26 26 27 27 26 25 24 24 22 20 17 14 11 9 8 7 8 8 8 7 5 6 9 9 9 9 7 7 8 8
12 10 11 12 14 15 14 14 14 16 15 15 17 18 15 16 19 20 20 20 20 21 21 19 18 16 13 11 10 9 8 10 12 12 11 9 6 5 8 13 17 18 19 21 23 25 26 28 30 29 28 27 27 27 26 25 26 27 27 27 25 25 26 23 19 16 12 9 7 6 5 6 6 6 7 6 6 7 8 9 10 9 9 10 8
18 14 13 13 16 17 16 15 13 13 12 11 13 15 16 18 20 18 15 15 17 20 19 18 19 18 13 9 8 7 7 7 8 10 11 10 8 7 6 7 12 15 17 21 25 26 28 30 31 31 31 28 26 24 23 23 24 25 26 27 26 25 25 23 19 15 11 8 6 4 3 3 3 4 5 6 6 7 8 10 11 11 10 9 7
21 20 18 17 19 19 19 18 16 13 13 12 12 14 16 18 18 17 15 15 17 19 17 17 18 17 12 8 7 7 8 9 9 11 13 13 11 11 9 9 11 13 17 21 25 27 30 32 32 32 32 30 27 25 25 26 26 25 26 28 29 26 23 20 17 15 11 8 6 5 4 3 2 2 4 6 8 10 12 13 13 11 9 8 6
21 22 20 19 20 20 20 19 18 15 14 12 12 13 14 15 16 16 17 17 17 16 15 15 16 14 10 8 8 9 11 14 16 16 16 16 16 16 15 13 12 13 18 25 28 29 31 32 33 32 29 28 27 27 28 26 24 22 25 29 31 28 23 20 18 15 12 10 9 7 6 4 2 2 5 8 11 14 14 13 12 10 9 7 6
20 21 20 19 20 21 20 20 19 17 15 13 12 12 13 13 14 15 15 15 15 13 12 12 13 11 8 7 8 9 10 13 16 18 20 21 22 21 19 16 15 14 17 22 27 29 30 30 31 30 27 27 27 26 23 20 17 19 24 29 31 29 25 22 20 17 14 12 11 9 6 4 3 3 7 11 14 16 14 12 11 10 8 7 5
17 18 18 19 20 20 20 20 18 17 15 15 14 14 13 13 13 12 12 12 13 12 11 11 11 9 8 7 8 9 9 9 11 13 16 18 19 20 20 20 21 19 18 18 20 24 26 25 27 29 29 27 25 20 17 16 15 17 23 29 30 27 23 20 19 16 14 14 13 10 6 2 1 4 9 13 15 16 14 12 10 8 6 5 4
16 16 16 17 17 17 18 18 16 15 15 15 14 14 13 13 12 13 13 12 12 13 13 12 11 10 10 10 10 10 11 12 11 12 14 13 14 16 19 21 22 22 20 19 19 21 21 22 25 27 25 20 16 13 13 15 15 17 24 27 25 21 18 17 16 14 14 15 13 8 5 4 5 8 12 14 14 12 11 9 8 6 6 4 3
13 13 13 13 12 12 13 13 12 11 12 12 11 11 11 11 10 10 11 12 13 14 14 15 14 14 14 15 14 13 13 14 14 14 13 12 13 14 17 19 21 20 19 19 20 22 22 23 24 23 20 15 13 11 11 12 15 19 23 24 22 19 17 16 16 15 15 14 9 6 6 7 9 11 12 11 10 8 8 8 7 6 5 3 2
Wind_Direction
192 190 190 190 194 195 194 195 195 194 196 199 201 200 199 198 196 194 190 189 197 199 197 200 200 199 197 200 206 208 210 213 215 218 216 216 217 217 220 225 227 222 218 217 212 199 192 191 192 195 200 203 205 208 216 226 225 222 231 242 248 256 268 276 279 283 289 301 310 294 265 247 212 203 221 196 167 163 160 337 344 333 318 328 343
191 189 191 191 193 193 193 194 194 195 198 201 202 199 197 197 196 196 192 191 200 201 198 203 202 198 198 202 208 210 212 213 214 217 215 215 217 220 223 227 233 227 218 212 204 198 196 196 197 202 206 206 209 215 222 228 227 225 228 232 239 256 270 272 270 278 287 301 312 284 233 203 189 196 209 207 192 180 192 281 353 326 310 325 343
189 189 191 192 193 194 193 195 196 199 201 200 199 197 196 197 198 199 196 195 200 199 198 203 203 203 204 207 211 213 215 216 217 218 215 215 218 219 223 229 239 235 216 205 200 199 200 200 202 206 209 210 215 222 227 227 227 229 229 226 230 249 261 263 263 272 283 296 309 268 205 181 180 189 198 199 198 198 194 197 262 277 287 330 352
189 189 190 192 193 194 194 195 198 200 200 197 196 196 198 199 200 201 198 197 199 197 197 205 207 206 207 210 215 219 220 216 215 218 218 216 217 218 222 229 239 240 221 205 200 203 202 202 206 209 212 217 222 228 229 227 228 230 227 224 228 241 252 256 258 267 279 289 304 267 204 185 182 188 192 186 188 202 196 195 215 245 286 353 3
190 189 189 190 191 193 194 196 198 199 199 197 195 197 199 199 200 201 197 195 200 199 198 204 208 206 205 208 215 219 219 215 212 215 215 214 215 216 220 227 237 242 227 211 204 206 206 205 208 211 217 222 227 232 229 227 229 228 225 225 225 231 245 253 254 263 275 283 294 267 210 198 195 190 189 175 148 157 169 173 189 206 5 19 8
193 191 191 191 190 192 193 196 198 198 199 197 197 198 199 199 199 199 196 193 199 202 200 205 208 208 207 207 211 212 213 213 212 212 212 212 212 212 215 224 232 235 229 220 212 210 210 209 210 212 219 224 230 233 229 225 228 227 226 229 226 230 244 251 252 259 268 278 286 263 225 213 198 188 187 179 158 148 154 156 160 143 71 38 350
193 193 193 192 190 190 193 197 198 199 199 198 197 198 200 199 197 198 198 197 200 201 203 209 211 211 213 213 214 214 213 214 214 212 210 209 209 209 214 220 223 225 227 228 221 214 212 214 215 217 221 225 231 232 226 223 225 225 228 232 232 236 247 251 252 258 263 271 278 257 235 225 206 196 192 187 180 168 165 163 135 115 110 109 225
190 191 192 191 191 192 194 198 199 199 200 198 197 198 200 199 198 199 199 202 204 200 203 212 212 212 215 217 218 219 218 216 214 211 210 209 210 212 216 218 219 221 222 226 223 213 211 215 218 222 225 227 230 229 223 223 226 226 228 231 233 238 246 251 255 259 260 266 274 266 250 239 222 213 210 202 193 181 178 177 147 130 136 174 207
191 191 192 191 192 194 196 198 198 199 200 199 197 198 200 199 200 201 201 204 202 199 204 213 214 213 215 218 219 221 222 220 216 212 210 211 213 216 218 219 221 221 220 224 225 215 210 214 219 223 226 226 227 226 222 223 228 231 232 232 235 240 247 254 258 260 260 263 269 268 264 259 245 234 231 224 207 195 202 196 164 154 160 174 204
192 194 193 193 194 196 197 197 196 198 200 198 197 198 199 199 201 202 203 203 200 201 208 215 216 215 216 219 220 220 222 221 217 215 214 215 216 219 221 221 221 223 223 227 228 220 215 217 221 223 225 224 225 225 221 224 230 232 233 235 238 244 251 259 261 260 261 265 266 264 262 258 253 247 240 236 230 225 237 215 174 167 170 152 173
191 193 193 194 195 196 196 195 195 197 198 196 197 198 199 200 202 203 203 201 201 208 213 216 218 217 217 220 220 220 220 219 216 216 218 217 217 219 221 221 220 221 225 229 228 224 221 221 223 224 224 223 224 223 223 227 230 232 234 235 239 245 254 261 262 261 263 264 263 262 263 258 252 248 243 241 241 237 238 213 175 159 149 148 159
189 190 191 192 193 194 193 192 193 195 196 196 197 198 199 201 202 202 202 201 205 211 214 217 220 218 217 219 220 220 220 219 216 216 218 218 218 220 222 221 220 221 224 227 226 226 226 225 223 222 223 223 222 222 225 228 231 235 235 232 236 247 257 261 261 261 262 260 258 260 264 260 249 244 243 247 250 245 228 181 166 155 147 150 157
187 188 190 191 191 190 189 189 190 192 194 195 197 198 200 201 201 201 201 202 208 212 214 218 220 217 217 219 219 219 220 219 218 218 220 220 221 224 225 222 220 221 223 224 225 226 227 227 224 221 223 225 223 223 226 227 232 237 233 229 236 250 262 264 261 259 258 255 254 257 258 251 239 236 244 257 264 262 175 149 154 157 158 156 159
187 187 189 190 190 189 188 188 189 192 194 195 197 199 200 200 201 203 203 205 210 213 215 218 219 217 217 218 218 218 220 221 220 220 222 223 224 229 232 228 223 223 224 225 226 227 228 227 224 222 224 227 224 224 227 228 232 235 231 231 244 256 265 268 264 257 253 249 249 250 248 240 233 231 239 250 253 254 169 151 153 157 162 163 166
186 187 189 190 191 189 187 187 189 192 194 196 198 200 201 201 203 205 206 208 212 216 217 218 219 217 217 218 218 218 220 222 223 223 224 226 228 232 236 234 229 226 227 228 228 228 227 225 223 222 224 224 222 224 227 226 230 235 235 239 249 257 265 268 262 252 248 245 243 243 240 235 233 227 226 232 233 229 200 169 164 163 161 161 167
186 187 189 190 191 189 187 188 190 192 193 196 198 200 202 204 206 207 209 212 216 218 218 217 217 216 216 218 219 219 220 221 223 224 226 228 232 236 238 237 232 228 228 229 228 226 225 221 219 220 221 221 221 222 224 224 230 235 236 241 250 257 262 264 258 247 242 240 239 239 238 235 233 229 226 227 222 220 212 188 173 172 170 163 155
187 187 188 190 190 189 188 189 190 191 192 196 199 201 205 208 209 210 212 215 219 220 218 217 217 215 216 218 220 220 220 221 222 224 226 228 232 236 237 236 234 229 227 229 226 224 221 218 217 218 219 221 220 219 220 223 228 232 234 241 248 255 263 263 256 243 235 233 232 234 237 235 235 234 232 226 216 214 216 200 181 178 183 179 166
187 188 188 190 189 188 188 190 191 192 193 196 199 203 207 211 212 211 212 214 217 218 216 216 216 215 216 218 220 221 221 222 223 224 226 228 231 233 234 233 231 227 226 228 225 221 218 216 217 218 220 221 219 219 220 221 223 228 233 241 248 255 261 261 254 236 227 225 224 227 229 227 230 230 223 217 212 208 210 205 192 186 188 191 189
185 187 188 189 188 187 187 189 191 192 194 196 199 203 206 209 210 210 212 213 214 215 215 216 217 217 217 218 220 222 222 223 223 223 226 229 230 231 233 233 230 227 227 229 227 221 218 217 217 218 219 218 216 217 219 218 220 227 233 242 252 257 256 256 249 232 223 220 216 219 222 220 223 220 210 208 214 217 211 204 199 195 194 197 202
183 186 188 188 188 187 188 190 192 193 195 196 199 202 203 204 206 209 212 214 214 215 216 216 217 217 217 217 219 221 222 224 223 224 228 231 230 229 232 233 231 229 230 230 229 224 220 219 218 218 217 215 214 215 216 216 218 225 235 246 255 256 252 249 239 225 221 219 213 216 220 220 222 217 205 202 212 230 237 227 207 196 199 201 203
184 186 187 188 189 188 189 192 194 194 195 197 200 200 199 199 202 207 211 213 214 216 217 217 217 218 216 215 217 219 221 223 224 227 231 231 230 230 232 232 231 232 231 231 230 225 221 219 216 215 214 212 213 214 215 214 215 220 235 248 253 252 248 241 229 218 216 216 213 217 223 223 226 223 211 206 223 246 249 245 217 193 201 204 199
184 186 188 188 188 188 190 192 193 193 195 197 199 199 199 199 200 206 211 213 215 216 217 217 217 218 217 216 218 219 221 223 225 227 230 231 231 230 231 232 233 235 234 232 230 224 220 217 215 212 210 210 213 215 213 210 210 218 235 244 246 244 238 230 224 218 215 214 214 218 225 228 229 233 237 242 260 267 254 240 214 195 202 198 188
185 186 187 188 188 188 190 191 192 193 195 197 199 200 200 199 199 206 211 213 215 217 217 217 218 219 218 218 220 222 223 225 225 226 229 231 230 229 231 233 236 237 236 234 229 223 219 218 218 215 212 213 216 215 211 208 208 221 237 240 235 230 222 217 219 220 218 216 216 219 227 234 236 240 247 250 256 261 255 242 222 199 192 187 183
185 185 187 186 186 187 188 191 192 193 196 198 200 201 201 199 201 207 212 213 215 217 218 218 218 219 219 220 222 225 226 225 225 226 229 231 230 230 232 236 238 238 237 234 229 224 218 217 218 216 215 219 217 212 209 208 214 228 238 236 228 220 215 215 219 221 221 220 219 221 227 235 243 245 248 250 251 251 247 235 218 186 174 179 184
183 184 185 184 184 186 188 191 192 193 196 199 201 201 200 200 202 208 212 213 214 216 217 218 218 218 219 221 224 227 226 225 225 227 229 231 231 232 234 236 237 236 235 233 231 228 223 219 219 218 219 221 216 208 205 208 217 231 232 227 225 221 219 219 222 224 225 225 223 225 232 238 246 247 246 250 250 245 234 218 208 193 179 178 183
182 182 183 183 184 187 189 191 192 194 198 201 202 202 201 201 203 208 211 212 213 216 217 217 218 218 219 222 225 227 227 226 226 227 228 230 231 232 234 235 235 235 234 234 235 235 230 223 221 221 219 215 207 201 203 210 222 229 224 222 225 225 224 224 226 227 228 229 229 232 240 244 249 249 245 243 240 236 226 213 205 196 186 179 178
181 180 181 182 184 187 190 192 193 196 200 202 203 203 202 201 204 208 211 213 213 214 215 216 218 219 221 223 226 228 228 227 227 226 226 227 228 230 232 234 235 234 234 237 239 237 232 226 224 224 217 205 198 198 205 213 219 217 216 225 229 228 229 228 227 228 227 229 231 234 242 251 255 255 248 235 225 220 216 212 206 198 195 188 182
176 177 178 181 184 188 190 191 193 196 199 201 201 201 201 201 204 208 211 213 212 212 214 216 218 220 222 224 227 229 230 229 227 224 224 225 227 231 233 235 234 232 236 241 239 234 232 231 231 228 217 202 197 204 212 214 213 210 214 227 231 230 229 226 224 225 227 231 235 237 245 254 256 252 244 232 216 201 197 203 204 202 205 205 200
170 174 177 180 183 187 189 190 192 194 195 196 197 199 200 201 205 209 210 210 211 212 213 215 217 220 221 224 226 227 231 232 227 222 222 223 226 229 232 233 232 233 239 242 236 231 231 231 228 224 216 205 203 211 213 209 208 212 219 227 230 230 230 226 223 225 229 235 240 242 246 252 251 241 231 223 208 193 189 194 198 200 207 213 212
169 172 176 180 183 186 188 189 190 191 192 194 196 198 201 204 208 211 210 211 213 213 213 215 216 217 220 223 224 226 230 231 225 222 222 221 223 226 228 230 230 232 235 235 232 233 235 234 230 224 216 211 213 215 208 200 205 216 225 228 228 231 233 230 228 231 236 240 242 243 245 247 241 225 215 210 199 191 189 188 190 196 206 215 214
167 171 175 179 182 184 186 187 188 190 192 195 198 200 203 208 211 212 212 213 214 213 212 215 216 217 218 220 221 224 227 225 221 220 219 218 222 226 226 227 229 229 228 227 227 232 236 237 235 230 223 219 219 216 201 194 201 213 225 228 228 233 235 233 232 236 240 242 243 242 242 238 225 209 204 201 193 190 188 185 187 192 202 211 213
157 167 173 177 180 183 184 185 187 190 194 198 201 203 207 210 211 212 214 214 213 213 213 215 218 216 212 211 216 223 226 223 219 219 218 217 220 223 222 223 225 225 224 222 222 227 234 235 234 231 225 219 215 209 199 194 198 208 222 228 229 235 236 234 233 235 238 240 239 238 233 221 207 199 199 197 191 189 187 184 185 186 193 203 209
155 162 168 174 179 182 185 188 191 195 200 204 205 207 208 210 211 212 213 213 213 214 215 215 215 211 206 208 219 226 224 220 219 219 219 218 218 218 219 219 220 220 220 219 220 223 231 234 232 229 223 215 210 207 201 197 200 209 219 222 226 233 236 234 233 235 236 234 234 234 224 209 200 195 195 193 189 187 185 183 184 184 189 197 202
158 164 170 173 178 182 187 192 196 200 203 204 206 208 209 209 211 213 213 213 214 214 214 214 213 208 208 214 224 226 221 217 218 220 220 218 217 215 215 216 218 218 216 216 218 223 229 232 231 229 225 219 212 208 205 202 204 211 216 219 225 231 233 232 233 236 234 229 231 233 220 208 201 193 190 189 185 183 180 180 182 184 188 192 195
168 172 176 177 181 188 191 192 195 198 201 203 206 208 209 210 212 213 212 212 210 209 211 213 209 206 211 217 220 220 219 218 218 219 217 215 214 212 211 215 221 224 223 221 222 228 231 229 229 229 226 220 212 210 211 209 207 211 216 219 225 229 228 229 231 233 230 227 228 226 219 215 207 195 186 183 179 177 177 178 177 177 179 180 175
171 180 182 182 187 195 196 193 193 197 201 204 206 207 209 211 211 211 210 207 205 206 208 208 203 203 210 212 212 215 219 216 214 213 212 210 210 209 210 217 224 229 232 230 230 234 233 229 228 226 221 217 215 215 216 212 208 212 216 219 223 227 228 229 229 226 222 224 229 232 235 228 215 204 193 182 176 175 177 180 181 174 167 162 154
164 183 187 186 189 194 195 191 191 195 199 202 204 206 208 209 208 207 204 202 204 206 204 201 199 202 206 206 209 215 215 209 207 207 206 206 207 208 212 219 224 227 231 233 233 234 232 229 226 221 217 217 219 218 214 210 209 212 214 217 221 226 228 225 221 215 215 222 231 242 255 245 217 208 203 193 186 181 177 181 184 176 164 154 149
152 180 186 186 187 190 191 191 194 198 200 203 204 205 207 208 206 203 201 201 203 201 197 196 197 200 202 205 210 212 206 200 200 202 202 204 206 210 214 218 223 228 233 235 236 234 231 227 222 219 217 218 219 217 212 209 211 215 218 218 220 225 227 217 207 207 212 218 228 240 260 266 229 207 201 200 201 192 182 178 176 170 162 155 151
136 163 173 175 177 182 192 204 207 203 201 203 204 203 204 204 200 194 192 194 196 195 194 193 195 198 200 203 203 201 200 200 199 199 202 205 210 216 219 221 225 230 233 235 234 232 230 226 221 219 220 220 220 219 215 210 212 217 220 220 221 225 224 212 205 207 207 210 222 237 256 261 236 222 223 230 231 218 199 186 171 159 152 149 151
114 135 152 158 168 183 196 204 205 201 196 197 202 203 202 202 199 191 186 185 186 188 189 192 194 192 194 200 198 195 197 199 200 202 205 208 214 219 222 224 225 226 229 232 232 230 228 225 222 221 222 222 221 221 218 213 213 218 221 222 223 226 222 212 209 210 209 211 223 235 248 250 248 265 277 267 251 235 217 204 180 151 142 144 147
115 130 151 163 183 202 206 202 204 203 194 191 196 197 190 186 187 188 186 183 182 181 180 185 190 189 191 197 195 192 195 199 205 208 208 213 219 219 219 224 226 226 228 230 230 230 228 226 225 224 224 223 221 220 219 215 213 217 221 223 225 226 221 214 212 213 217 225 231 237 244 249 260 277 277 260 237 224 219 217 204 168 154 158 155
111 104 102 131 172 196 202 197 197 199 194 191 194 195 185 172 174 182 185 185 183 178 175 180 187 187 190 192 188 190 198 203 205 206 207 217 226 225 223 228 230 231 232 231 231 232 231 228 226 225 223 221 217 216 217 216 214 214 218 223 225 225 221 217 215 214 218 228 238 243 245 250 263 270 264 240 215 212 219 226 218 194 172 170 166
82 86 95 115 141 157 171 178 182 189 194 198 202 201 195 182 176 177 180 181 182 179 176 180 186 186 185 187 185 186 190 192 196 202 208 218 225 231 233 228 225 227 231 231 232 234 234 230 225 222 219 214 212 213 214 213 211 211 214 219 222 224 224 222 220 218 219 228 238 239 242 256 269 264 252 242 220 212 219 226 218 200 181 174 171
90 106 119 127 132 137 147 159 171 179 184 194 201 200 190 175 170 172 176 177 180 182 179 180 185 186 180 174 174 177 181 186 194 202 210 217 226 245 240 221 213 218 226 230 232 234 234 230 225 222 219 214 212 212 212 212 211 210 211 215 219 223 225 222 217 217 221 228 231 233 245 262 263 247 240 246 231 211 209 210 202 191 180 176 175
101 108 116 119 119 119 120 125 140 154 158 165 179 180 172 165 164 167 173 176 179 182 182 184 189 190 178 161 162 177 188 197 209 217 221 225 232 246 245 215 206 211 220 228 232 233 234 231 226 224 224 222 219 215 212 213 213 212 214 215 216 220 223 217 211 212 215 215 214 221 241 241 215 210 223 223 208 192 181 176 175 175 174 176 177
103 103 106 110 111 110 109 110 117 128 137 145 154 159 161 162 159 158 163 171 176 178 180 189 197 195 181 167 176 194 200 206 217 226 231 236 240 246 247 231 218 217 222 228 231 232 232 230 227 227 226 226 225 220 213 212 213 213 215 214 211 214 217 211 205 208 210 205 203 210 221 215 190 207 213 198 181 169 163 161 163 166 171 178 178
106 108 110 109 106 106 107 107 108 114 122 133 143 150 154 159 160 158 159 165 173 175 177 188 202 204 193 189 203 212 213 214 215 218 226 232 236 240 241 234 227 228 227 228 230 231 231 231 232 231 228 224 224 219 211 209 213 216 216 213 209 209 210 204 199 200 200 199 205 212 214 225 260 247 203 182 171 165 162 161 164 170 180 187 182
103 108 113 111 106 106 110 110 111 115 120 125 129 135 142 149 155 158 158 161 165 167 170 185 202 207 203 203 214 220 220 219 219 220 224 227 228 230 234 236 237 240 238 235 234 234 234 236 237 238 234 225 219 214 207 210 223 227 222 215 210 208 207 202 198 196 189 188 201 212 211 225 264 222 184 174 169 164 158 153 155 163 175 181 177
100 102 109 110 107 108 110 110 111 116 123 124 124 130 140 149 153 155 155 155 158 164 174 187 195 197 201 207 214 220 222 223 227 230 232 233 235 236 238 238 238 240 245 251 251 247 244 244 244 245 242 230 218 210 212 223 234 231 222 216 210 206 203 195 191 191 184 182 192 198 192 191 227 184 173 169 167 164 158 152 152 157 164 167 161
97 98 102 104 104 107 109 106 107 114 122 123 122 124 130 140 155 166 169 168 170 175 181 186 190 196 204 208 210 218 223 224 226 229 231 237 248 254 252 245 240 240 243 250 255 252 252 255 251 244 239 231 222 221 226 230 229 222 218 215 209 203 197 188 180 177 175 177 179 173 156 147 157 164 162 161 163 165 164 166 171 173 174 180 187
95 97 100 102 106 114 116 109 104 108 115 118 120 121 118 121 134 155 172 184 192 195 195 197 201 205 208 208 211 219 225 227 226 226 229 236 245 255 259 251 243 240 240 244 247 246 247 254 252 241 226 214 216 227 230 226 221 214 209 207 204 196 187 178 170 164 163 162 151 126 122 137 150 155 155 157 165 168 168 175 182 180 179 196 242